This is the latest recevied weather packets stored in our database for station/object KB1RMA-13. If no packets are shown the sender has not sent any weather packets the latest 10 day(s).
| Time | Temp. | Humidity | Pressure | Rain* | Wind** | Luminosity | Snow |
|---|---|---|---|---|---|---|---|
| 1777586019 | 8.89° C | 99% | 1006.4 hPa | 0 mm | - | 68 W/m² | - |
| 1777585718 | 8.89° C | 98% | 1006.5 hPa | 0 mm | - | 92 W/m² | - |
| 1777585418 | 8.89° C | 98% | 1006.5 hPa | 0 mm | - | 127 W/m² | - |
| 1777585113 | 8.33° C | 98% | 1006.3 hPa | 0 mm | - | 102 W/m² | - |
| 1777584810 | 8.33° C | 98% | 1006.3 hPa | 0 mm | - | 77 W/m² | - |
| 1777584508 | 8.33° C | 98% | 1006.4 hPa | 0 mm | - | 38 W/m² | - |
| 1777584204 | 8.33° C | 98% | 1006.4 hPa | 0 mm | - | 31 W/m² | - |
| 1777583903 | 8.33° C | 98% | 1006 hPa | 0 mm | - | 33 W/m² | - |
| 1777583600 | 8.33° C | 98% | 1006.3 hPa | 0 mm | - | 32 W/m² | - |
| 1777583298 | 8.89° C | 98% | 1006.1 hPa | 0 mm | - | 43 W/m² | - |
| 1777582994 | 8.89° C | 98% | 1006 hPa | 0 mm | - | 43 W/m² | - |
| 1777582691 | 8.89° C | 98% | 1006 hPa | 0 mm | - | 46 W/m² | - |
| 1777582387 | 8.89° C | 98% | 1005.9 hPa | 0 mm | - | 55 W/m² | - |
| 1777582085 | 8.89° C | 98% | 1006.1 hPa | 0 mm | - | 51 W/m² | - |
| 1777581785 | 8.89° C | 98% | 1006.3 hPa | 0 mm | - | 61 W/m² | - |
| 1777581483 | 8.89° C | 98% | 1006.1 hPa | 0 mm | - | 47 W/m² | - |
| 1777581179 | 8.89° C | 98% | 1006.3 hPa | 0 mm | - | 48 W/m² | - |
| 1777580873 | 8.89° C | 98% | 1006.4 hPa | 0 mm | - | 65 W/m² | - |
| 1777580569 | 8.89° C | 98% | 1006.3 hPa | 0 mm | - | 78 W/m² | - |
| 1777580264 | 8.89° C | 98% | 1006.1 hPa | 0 mm | - | 81 W/m² | - |
| 1777579962 | 8.89° C | 98% | 1006.2 hPa | 0 mm | - | 68 W/m² | - |
| 1777579657 | 8.89° C | 98% | 1006.3 hPa | 0 mm | - | 60 W/m² | - |
| 1777579356 | 8.89° C | 98% | 1006.3 hPa | 0 mm | - | 60 W/m² | - |
| 1777579051 | 8.89° C | 98% | 1006.4 hPa | 0 mm | - | 75 W/m² | - |
| 1777578746 | 9.44° C | 98% | 1006.4 hPa | 0 mm | - | 57 W/m² | - |
* Rain latest hour (hover to see other rain measurements)
** Current wind speed in m/s (hover to see current wind gust speed)